Location: Gollag?dem
(16.8053°N, 80.8024°E)
Time: 23:39:42
(UTC+00:00)

N. Korean satellite - Visible Passes

Search period start: 20 January 2022 00:00
Search period end: 30 January 2022 00:00
Orbit: 446 x 491 km, 97.3° (Epoch: 20 January)

Date Brightness Start Highest point End Pass type
(mag) Time Alt. Az. Time Alt. Az. Time Alt. Az.
20 Jan 9.1 23:00:25 14° ENE 23:02:20 21° E 23:05:06 10° SSE visible
21 Jan 8.5 00:34:27 11° WNW 00:35:11 12° WNW 00:36:29 10° W visible
22 Jan 7.2 00:05:03 25° NW 00:06:13 32° WNW 00:09:27 10° SW visible
22 Jan 6.6 23:35:38 33° NNE 23:37:10 80° ESE 23:40:46 10° S visible
23 Jan 8.8 23:06:12 17° NE 23:08:01 25° E 23:11:03 10° SSE visible
25 Jan 7.5 00:10:46 22° NW 00:11:50 26° WNW 00:14:51 10° SW visible
25 Jan 6.4 23:41:16 34° N 23:42:45 81° WNW 23:46:20 10° SSW visible
26 Jan 8.4 23:11:45 19° NE 23:13:35 31° E 23:16:47 10° SSE visible
27 Jan 10.0 22:43:21 10° E 22:44:20 11° E 22:45:19 10° ESE visible
28 Jan 7.8 00:16:13 19° NW 00:17:18 21° WNW 00:20:04 10° SW visible
28 Jan 6.4 23:46:37 30° N 23:48:11 65° WNW 23:51:44 10° SSW visible
29 Jan 8.0 23:16:57 20° NE 23:19:00 37° E 23:22:19 10° SSE visible
